Regional Weather Roundup
Issued by NWS

Home | Current Version | Previous Version | Text Only | Print | Product List | Glossary On
Versions: 1 2 3 4 5 6 7 8 9 10 11 12 13 14 15 16 17 18 19 20 21 22 23 24 25 26 27 28 29 30 31 32 33 34 35 36 37 38 39 40 41 42 43 44 45 46 47 48 49 50
000
ASUS44 KOUN 231310
RWROK

WEATHER ROUNDUP FOR OKLAHOMA
NATIONAL WEATHER SERVICE NORMAN OK
800 AM CDT WED APR 23 2014

NOTE: "FAIR" INDICATES FEW OR NO CLOUDS BELOW 12,000 FEET WITH NO
      SIGNIFICANT WEATHER AND/OR OBSTRUCTIONS TO VISIBILITY.

OKZ001>007-009>012-014-015-017-231400-
NORTHWEST OKLAHOMA AND THE PANHANDLE

CITY           SKY/WX    TMP DP  RH WIND       PRES   REMARKS
GAGE           MOSUNNY   62  50  64 S21G26    29.82R
ENID/VANCE AFB MOSUNNY   57  43  58 SE16      29.84S
ENID/WOODRING  PTSUNNY   61  43  51 SE14      29.86R
$$

OKZ016-021>023-033>039-044-045-231400-
SOUTHWEST OKLAHOMA

CITY           SKY/WX    TMP DP  RH WIND       PRES   REMARKS
LAWTON/REGL    SUNNY     60  55  83 S6        29.90R
LAWTON/FT SILL SUNNY     61  55  81 S8        29.89R
FREDERICK      SUNNY     56  54  93 SE7       29.86R
CLINTON        SUNNY     60  53  77 S15       29.88S
HOBART         SUNNY     59  54  83 S15       29.89R
ALTUS AFB      SUNNY     56  56 100 SE8       29.88S
$$

OKZ018>020-024>031-231400-
CENTRAL OKLAHOMA

CITY           SKY/WX    TMP DP  RH WIND       PRES   REMARKS
OKLAHOMA CITY  MOSUNNY   58  44  60 S10       29.90R
OKC/WILEY POST SUNNY     61  40  45 S17       29.89R
OKC/TINKER AFB SUNNY     59  44  58 S12       29.91R
STILLWATER     SUNNY     58  41  53 S8        29.90R
GUTHRIE        SUNNY     62  40  44 S10       29.89R
$$

OKZ008-013-054>072-231400-
NORTHEAST OKLAHOMA

CITY           SKY/WX    TMP DP  RH WIND       PRES   REMARKS
TULSA          MOSUNNY   59  43  55 SE12      29.92S
TULSA/JONES    SUNNY     57  45  64 S3        29.93R
PONCA CITY     SUNNY     59  38  45 SE9       29.88R
BARTLESVILLE   SUNNY     50  45  83 CALM      29.95S
MUSKOGEE       SUNNY     54  44  69 S7        29.96R
$$

OKZ032-040>043-046>053-073>077-231400-
SOUTH CENTRAL/SOUTHEAST OKLAHOMA

CITY           SKY/WX    TMP DP  RH WIND       PRES   REMARKS
ARDMORE/DWNTWN   N/A     55  50  82 CALM      29.93R
MCALESTER      SUNNY     57  44  62 E7        29.94S
$$




USA.gov is the U.S. government's official web portal to all federal, state and local government web resources and services.